Weather in Yermolovka

Russia / Penza Oblast     53°09′51″N   44°30′55″E
temp.,
°C
wind,
m/s
gust,
m/s
humid.,
%
clouds,
%
prec.,
mm/h
press.,
hPa
HPBL,
m
28 february, sun
sun2800:00−15nnw4109498 0.0 1011289
03:00−17nw4109668 0.0 1012206
06:00−18nw489876 0.0 1013162
09:00−16nnw489683 0.1 1014291
12:00−13nnw469190 0.0 1014431
15:00−11nw479195 0.0 1015498
18:00−14nnw349697 0.0 101640
21:00−16nnw349675 0.0 101933
1 march, mon
mon100:00−17nnw239731 0.0 102020
03:00−18nnw239716 0.0 102220
06:00−19nnw23970 0.0 102320
09:00−16nw23960 0.0 1025119
12:00−12nw349124 0.0 1025251
15:00−9wnw359254 0.0 1025335
18:00−12wsw479686 0.0 1023107
21:00−10wsw5119590 0.0 1022233
2 march, tue
tue200:00−6wsw71394100 0.1 1019549
03:00−4wsw81495100 0.6 1016521
06:00−3w81594100 1.1 1012686
09:000w91595100 1.4 1010885
12:00+1w813100100 0.5 1007747
15:000wnw61099100 1.1 1006628
18:00−2wnw4996100 0.6 1006282
21:00−4wnw479893 0.6 1007141
3 march, wed
wed300:00−5nw3695100 0.0 1006121
03:00−7nw459392 0.0 100786
06:00−7nw479774 0.0 1008128
09:00−5nw499683 0.0 1009308
12:00−2nw589298 0.1 1010702
15:00−2nw589098 0.4 1011766
18:00−5nw3695100 0.1 1012143
21:00−6nw4109591 0.4 1015353
4 march, thu
thu400:00−10wnw479347 0.0 1015118
03:00−10wsw5109626 0.0 1014149
06:00−8wsw5129596 0.1 1012279
09:00−4wsw8149298 0.1 1010722
12:00−2wsw91593100 0.1 1006731
15:000wsw101787100 0.1 1004913
18:00−1wsw10169194 0.1 10031088
21:00−1w8159397 0.3 1003845